Wind_Speed
37 37 38 38 39 39 40 41 42 43 44 43 45 45 45 46 46 47 47 46 46 47 47 47 47 48 48 49 50 51 50 50 49 49 50 49 49 49 49 49 48 48 49
35 36 37 37 38 38 39 40 42 43 44 44 45 45 46 47 47 47 48 48 48 48 48 48 48 49 49 50 51 51 51 51 51 50 50 50 49 49 50 49 48 49 49
34 35 37 38 38 39 40 41 42 43 45 46 46 47 47 48 49 48 48 49 49 48 48 48 48 49 49 50 52 52 52 52 52 51 51 51 50 50 50 50 50 50 50
34 35 36 37 38 40 40 41 42 43 44 46 47 47 47 49 49 49 50 50 50 49 49 49 49 49 50 50 51 52 52 52 52 52 52 52 51 51 52 52 51 51 51
33 34 35 36 37 38 39 40 42 43 44 45 46 46 47 48 49 49 50 50 50 50 50 50 51 51 51 52 51 52 52 52 53 53 53 53 53 53 54 54 54 53 53
34 35 35 36 36 37 38 39 41 43 44 45 46 47 47 48 48 48 49 49 49 50 51 51 51 52 52 52 52 52 52 53 54 53 53 52 52 53 53 52 53 53 52
34 34 35 36 37 38 39 40 41 42 43 45 46 47 47 47 48 48 47 48 48 49 49 50 50 50 51 51 51 52 52 52 53 54 53 52 52 52 52 52 52 52 50
33 34 35 36 37 38 39 40 41 41 42 43 44 45 46 47 47 47 47 47 48 48 49 49 49 49 49 50 50 51 51 51 52 52 53 52 51 51 51 52 52 51 50
33 34 34 35 36 38 39 40 40 41 42 42 43 44 45 46 46 46 45 46 46 46 47 48 48 48 48 49 49 49 49 49 50 51 50 50 50 49 49 50 49 49 48
32 33 34 35 36 37 38 39 40 40 41 41 42 43 43 43 43 43 43 44 44 44 44 45 46 46 47 47 47 46 46 46 47 47 47 47 48 48 48 48 48 47 47
31 32 33 34 36 37 37 38 38 39 39 40 41 41 41 41 41 42 43 43 43 43 43 44 44 45 45 45 45 45 44 44 44 45 45 45 46 46 46 46 46 46 45
32 32 33 34 34 35 36 36 37 38 39 39 40 40 41 41 41 42 42 43 43 43 43 44 44 44 44 44 44 43 43 43 43 43 43 43 43 43 43 42 43 43 44
32 32 33 33 34 34 35 35 36 37 38 38 39 40 40 41 41 41 42 42 42 42 42 43 43 43 44 44 44 43 43 43 42 42 41 41 41 41 41 41 41 42 42
31 32 33 34 34 35 36 36 36 37 37 38 38 39 39 40 40 40 41 42 42 41 41 41 42 42 42 43 42 42 41 41 40 40 39 39 39 39 39 39 40 40 40
31 32 33 34 35 35 36 36 37 37 37 38 38 39 39 39 39 40 41 41 42 41 41 41 41 40 41 41 40 40 39 39 39 39 38 38 38 38 38 38 38 38 38
31 32 33 34 34 35 36 36 37 38 39 39 39 39 39 39 39 40 40 41 41 41 40 40 39 39 39 39 38 38 39 39 38 38 38 38 37 37 37 37 37 36 36
31 32 33 33 34 35 36 37 37 38 39 39 39 39 38 38 38 39 39 40 40 39 39 38 38 38 38 37 37 37 38 38 38 37 37 36 36 36 36 35 35 35 34
30 31 32 33 34 35 36 37 37 37 38 38 38 38 37 37 37 37 38 38 38 38 38 37 37 37 37 36 36 36 36 36 36 36 36 35 35 34 34 34 34 34 34
30 31 32 33 34 35 36 36 37 36 36 36 36 36 36 36 36 36 36 36 36 36 36 36 36 36 36 36 35 35 34 34 34 34 34 34 33 33 33 32 32 32 32
30 31 32 33 34 34 34 34 34 35 35 35 35 35 35 34 34 35 35 35 35 35 35 35 35 35 34 34 33 33 34 34 33 33 33 32 32 31 31 30 30 30 30
30 31 32 32 32 32 32 32 33 34 34 34 33 33 33 33 33 34 34 34 34 34 33 33 32 31 31 31 32 32 32 32 32 31 31 31 30 30 29 29 29 28 28
29 30 30 30 31 31 32 32 33 33 32 32 32 31 31 31 32 32 32 33 33 33 32 31 31 30 30 30 30 30 29 29 29 29 29 29 28 28 27 27 27 26 26
30 30 30 30 30 31 31 32 32 32 31 31 30 30 30 30 30 30 30 30 30 30 30 30 29 29 29 28 27 26 26 26 26 26 26 26 26 25 25 24 24 24 24
30 30 30 30 31 31 31 31 32 32 31 31 30 30 29 29 29 29 29 29 28 28 28 27 27 26 26 25 25 24 24 24 24 24 24 24 23 23 22 22 22 22 22
30 30 30 30 30 30 31 31 31 31 30 30 29 29 28 28 28 28 28 27 26 26 25 25 24 24 24 24 23 23 22 22 22 22 21 21 21 21 21 21 21 21 21
29 29 30 30 30 30 30 30 30 30 29 28 27 27 26 27 27 27 26 25 24 23 22 22 21 21 21 21 21 21 21 21 21 20 20 20 20 20 20 20 21 21 21
Wind_Direction
258 260 260 260 261 262 262 262 261 262 263 263 264 265 265 265 267 268 268 268 269 270 272 271 271 271 271 270 271 272 273 274 275 274 275 274 274 273 272 272 271 270 270
259 260 261 262 262 263 264 264 263 263 264 264 266 266 266 266 267 268 269 269 270 272 272 272 272 272 271 271 271 272 273 274 275 275 275 274 274 273 272 270 270 270 269
261 262 262 263 263 264 265 265 265 265 266 266 266 267 268 267 268 268 270 271 271 272 272 272 272 272 273 273 272 272 273 274 274 274 274 273 273 273 272 271 271 270 270
262 263 264 265 265 265 266 266 267 268 268 268 268 268 269 269 269 270 271 271 272 272 272 272 272 273 273 274 274 274 274 274 274 274 274 273 273 272 273 273 272 272 272
265 266 266 267 267 268 268 268 268 269 270 271 270 270 271 272 271 270 271 271 271 272 272 273 274 274 275 275 275 274 274 273 272 273 273 272 272 272 272 272 272 272 272
266 268 268 268 269 270 270 270 270 271 271 271 271 271 272 272 271 270 270 270 271 271 272 273 275 276 276 276 276 276 275 274 272 272 272 273 273 272 272 272 272 272 271
268 269 268 269 270 271 271 272 273 273 274 274 274 274 273 272 271 270 269 270 270 271 272 273 274 276 276 276 276 276 276 276 274 273 273 272 273 272 272 271 271 271 270
269 271 270 271 272 274 274 275 275 275 275 276 276 276 274 273 272 271 270 270 269 270 271 273 274 275 276 277 277 276 276 276 275 275 274 273 272 272 272 272 271 270 270
270 271 272 273 274 275 276 276 276 276 276 276 276 276 276 275 274 273 272 272 271 271 272 273 274 275 276 276 277 277 276 276 275 275 275 273 272 272 272 272 271 270 269
271 272 274 275 276 277 276 276 276 277 277 277 277 277 276 275 274 273 272 272 273 274 274 274 275 276 276 277 277 278 277 276 276 276 275 274 274 274 273 272 271 271 270
274 275 276 278 279 279 278 278 278 278 278 279 279 278 277 275 274 273 272 273 275 276 276 276 277 277 278 277 277 277 277 277 277 276 275 275 275 274 274 273 272 272 271
276 278 278 279 280 281 281 280 280 279 279 279 279 278 277 276 274 273 274 274 276 277 277 277 277 277 277 277 277 277 277 277 277 276 275 275 275 274 274 273 272 271 271
278 279 280 281 282 283 283 283 283 282 281 280 280 279 277 276 275 274 274 275 276 278 278 277 277 277 276 277 276 276 276 276 276 276 276 276 275 275 274 272 272 271 271
280 281 282 282 283 284 284 284 285 284 283 282 281 280 279 276 275 275 275 275 275 277 278 278 277 276 277 277 276 276 276 276 276 275 276 276 276 275 274 273 272 272 271
282 284 284 284 285 285 286 286 286 285 285 284 283 282 280 277 276 276 276 276 276 277 278 278 277 276 277 277 277 276 275 275 275 275 275 276 276 275 275 274 272 271 270
284 285 286 286 286 287 287 288 288 288 286 285 284 283 281 279 277 276 276 277 278 277 278 278 278 278 277 276 275 274 274 274 275 275 276 276 276 275 275 273 272 271 270
285 286 287 288 288 289 289 290 290 289 288 287 285 285 283 280 278 278 278 278 278 278 278 278 279 279 277 276 275 275 275 274 274 275 275 275 276 275 274 273 271 270 269
287 287 288 289 290 291 291 291 291 290 290 288 287 285 283 281 280 279 278 278 278 278 278 278 278 278 276 275 275 275 275 274 275 275 275 275 276 275 273 273 272 270 269
289 290 290 291 291 292 293 292 292 291 290 288 286 286 285 283 281 280 279 278 278 278 278 279 278 277 275 275 275 274 274 274 274 274 273 273 274 274 274 274 273 271 269
292 293 293 293 293 293 294 294 294 293 291 289 286 286 285 284 282 281 279 278 279 279 279 279 278 277 275 275 274 273 273 274 273 273 272 272 272 272 272 271 271 269 268
295 295 295 295 295 295 296 296 296 296 294 291 289 288 287 285 284 282 279 278 278 279 278 278 277 277 276 275 274 274 273 273 272 272 271 271 271 270 270 269 268 268 268
297 298 298 298 297 297 298 298 298 298 297 295 292 290 289 287 287 285 282 280 279 278 277 276 275 276 275 275 275 275 274 272 271 271 270 270 269 268 268 267 267 267 267
299 299 299 299 299 300 301 301 301 300 299 296 295 293 291 291 290 288 286 284 281 278 277 276 275 275 275 274 274 273 273 272 271 270 270 269 268 267 267 267 266 266 265
299 300 300 300 301 301 302 302 302 301 300 298 296 294 293 292 292 290 289 286 282 280 278 276 275 274 273 272 272 272 272 272 270 269 268 267 265 265 265 264 264 265 264
300 301 301 301 302 301 301 302 303 304 303 300 298 295 293 293 294 293 291 287 283 281 279 276 275 273 272 270 270 270 270 269 269 267 266 264 263 263 264 264 264 265 264
301 303 304 303 302 301 301 303 304 305 305 303 300 298 297 296 295 293 291 287 283 280 278 278 276 274 272 270 268 268 268 267 266 265 263 262 262 263 263 264 264 263 262
Height
5652 5653 5654 5655 5655 5656 5657 5658 5659 5660 5660 5661 5662 5662 5662 5663 5663 5663 5663 5662 5662 5661 5660 5659 5658 5657 5656 5655 5654 5653 5652 5651 5650 5650 5648 5646 5644 5643 5642 5640 5639 5639 5638
5643 5643 5644 5645 5645 5646 5647 5648 5648 5649 5649 5649 5649 5649 5650 5650 5650 5650 5650 5649 5648 5648 5647 5646 5645 5644 5643 5642 5641 5640 5638 5637 5636 5636 5634 5632 5631 5629 5628 5627 5626 5625 5624
5633 5633 5634 5634 5635 5636 5636 5637 5637 5637 5637 5637 5637 5637 5637 5637 5637 5637 5636 5635 5634 5634 5633 5632 5631 5630 5629 5628 5627 5626 5624 5623 5621 5621 5620 5618 5617 5615 5614 5613 5612 5611 5610
5623 5623 5623 5624 5624 5624 5625 5625 5625 5625 5625 5624 5624 5624 5623 5623 5623 5622 5622 5621 5620 5620 5619 5619 5618 5617 5615 5614 5612 5611 5610 5608 5607 5606 5605 5604 5603 5601 5599 5599 5598 5597 5596
5613 5613 5613 5613 5613 5613 5613 5613 5613 5613 5612 5611 5611 5610 5610 5609 5608 5608 5608 5607 5607 5606 5605 5604 5603 5602 5601 5599 5598 5596 5595 5594 5592 5591 5590 5589 5588 5586 5585 5584 5583 5582 5582
5604 5603 5603 5603 5603 5602 5602 5601 5601 5600 5599 5598 5598 5597 5596 5595 5595 5594 5593 5593 5593 5592 5592 5590 5589 5588 5586 5584 5583 5581 5580 5578 5577 5576 5575 5574 5573 5571 5569 5568 5568 5568 5568
5594 5594 5593 5593 5592 5591 5590 5590 5589 5588 5587 5586 5584 5583 5582 5581 5581 5580 5579 5579 5578 5578 5577 5576 5575 5574 5572 5570 5568 5566 5564 5563 5561 5560 5559 5559 5558 5556 5555 5554 5553 5552 5552
5584 5584 5583 5582 5581 5580 5579 5578 5577 5576 5574 5573 5572 5570 5569 5568 5567 5566 5565 5565 5564 5563 5563 5562 5561 5559 5557 5555 5554 5552 5550 5549 5547 5545 5545 5544 5542 5541 5540 5539 5538 5537 5537
5574 5573 5572 5571 5570 5569 5568 5566 5565 5563 5562 5560 5559 5557 5555 5554 5553 5552 5552 5551 5550 5550 5549 5548 5546 5545 5544 5542 5540 5538 5536 5534 5532 5530 5529 5528 5527 5526 5525 5524 5523 5522 5523
5564 5563 5562 5561 5560 5558 5556 5555 5553 5551 5550 5548 5546 5544 5543 5542 5540 5539 5538 5538 5537 5537 5536 5534 5533 5531 5529 5527 5525 5524 5522 5520 5518 5517 5515 5514 5512 5511 5510 5509 5509 5508 5508
5554 5553 5552 5551 5549 5547 5545 5543 5541 5539 5538 5536 5534 5532 5531 5529 5528 5526 5525 5524 5524 5523 5522 5520 5519 5517 5515 5513 5511 5510 5509 5507 5505 5503 5502 5500 5499 5497 5496 5495 5495 5494 5494
5545 5543 5542 5540 5538 5536 5534 5532 5529 5527 5525 5523 5521 5519 5518 5516 5515 5514 5513 5512 5511 5510 5508 5507 5505 5504 5502 5500 5498 5497 5495 5493 5492 5490 5489 5487 5486 5485 5483 5482 5481 5480 5480
5535 5533 5532 5530 5528 5525 5523 5521 5518 5516 5514 5511 5509 5507 5505 5504 5502 5501 5500 5499 5498 5496 5495 5493 5492 5490 5489 5487 5485 5483 5482 5480 5479 5478 5476 5475 5473 5472 5471 5470 5469 5468 5467
5524 5523 5521 5519 5517 5514 5512 5509 5507 5505 5502 5500 5497 5495 5493 5492 5490 5489 5487 5486 5485 5484 5482 5480 5479 5477 5475 5474 5472 5470 5469 5468 5466 5465 5464 5463 5461 5460 5459 5457 5456 5456 5455
5514 5512 5510 5508 5506 5503 5501 5498 5496 5493 5491 5488 5486 5483 5481 5480 5478 5476 5475 5474 5472 5471 5469 5467 5466 5464 5463 5461 5459 5458 5456 5456 5455 5453 5452 5451 5449 5448 5447 5445 5445 5444 5443
5504 5502 5499 5497 5495 5492 5490 5487 5484 5482 5479 5476 5473 5471 5469 5467 5466 5464 5462 5461 5459 5458 5456 5455 5453 5452 5450 5448 5447 5446 5445 5444 5443 5442 5441 5439 5438 5437 5435 5434 5433 5433 5432
5494 5492 5489 5487 5484 5481 5479 5476 5473 5470 5467 5464 5461 5458 5456 5454 5453 5452 5450 5448 5447 5445 5444 5443 5441 5440 5438 5436 5435 5434 5434 5433 5431 5430 5429 5428 5427 5425 5424 5423 5422 5422 5421
5484 5482 5479 5476 5474 5471 5468 5465 5462 5459 5456 5452 5449 5447 5445 5442 5441 5439 5437 5436 5434 5433 5432 5431 5429 5428 5426 5425 5424 5423 5422 5421 5420 5419 5418 5417 5416 5414 5413 5413 5412 5411 5411
5474 5472 5469 5466 5463 5460 5457 5454 5451 5448 5444 5441 5438 5436 5433 5431 5429 5427 5425 5424 5423 5422 5420 5419 5418 5416 5415 5414 5413 5412 5411 5410 5409 5408 5407 5406 5405 5404 5403 5402 5402 5401 5401
5465 5462 5459 5456 5453 5450 5447 5443 5440 5437 5434 5431 5428 5425 5423 5420 5418 5416 5414 5413 5412 5411 5409 5408 5406 5405 5404 5403 5402 5401 5401 5400 5399 5398 5397 5396 5395 5394 5393 5393 5392 5392 5392
5456 5453 5450 5447 5443 5440 5437 5433 5430 5427 5423 5420 5417 5414 5412 5410 5408 5406 5404 5402 5401 5400 5398 5397 5396 5394 5393 5392 5392 5391 5390 5389 5388 5387 5387 5386 5385 5385 5384 5384 5383 5383 5383
5448 5444 5441 5438 5434 5431 5427 5424 5420 5416 5413 5409 5407 5404 5401 5399 5397 5395 5394 5392 5391 5389 5388 5387 5386 5384 5383 5382 5382 5381 5380 5379 5379 5378 5377 5377 5376 5376 5376 5375 5375 5375 5375
5439 5436 5432 5429 5425 5422 5418 5414 5410 5407 5403 5400 5397 5394 5392 5389 5387 5385 5383 5382 5380 5379 5378 5377 5376 5375 5374 5373 5372 5371 5371 5370 5370 5369 5369 5368 5368 5368 5368 5368 5368 5367 5368
5430 5427 5424 5420 5417 5413 5409 5405 5401 5397 5394 5391 5388 5385 5383 5380 5378 5376 5374 5372 5371 5369 5368 5367 5367 5366 5365 5364 5364 5363 5363 5362 5362 5361 5361 5361 5361 5361 5361 5361 5361 5361 5361
5422 5419 5415 5411 5408 5404 5400 5396 5393 5389 5385 5382 5379 5376 5374 5371 5369 5367 5365 5363 5362 5360 5359 5359 5358 5357 5357 5356 5356 5355 5355 5355 5354 5354 5354 5354 5354 5354 5354 5354 5355 5355 5355
5414 5410 5407 5403 5399 5395 5392 5388 5384 5381 5377 5374 5371 5368 5366 5363 5361 5359 5357 5355 5353 5352 5351 5351 5350 5350 5349 5349 5348 5348 5348 5348 5347 5347 5347 5347 5348 5348 5348 5348 5348 5348 5348